Weather History for Antwerp, Belgium

Change the Weather History Date:

Sunday, January 12, 2014

  Actual Average Record
Temperature  
Mean Temperature 34 °F -  
Max Temperature 43 °F 43 °F 53 °F (1998)
Min Temperature 26 °F 33 °F 19 °F (2003)
Degree Days  
Heating Degree Days 30    
Moisture  
Dew Point 32 °F    
Average Humidity 84    
Maximum Humidity 100    
Minimum Humidity 58    
Precipitation  
Precipitation 0.00 in - - ()
Sea Level Pressure  
Sea Level Pressure 30.16 in    
Wind  
Wind Speed 4 mph ()    
Max Wind Speed 10 mph    
Max Gust Speed -    
Visibility 6.4 miles    
Events Fog    
Averages and records for this station are not official NWS values.
T = Trace of Precipitation, MM = Missing Value Source: Averaged Metar Reports

Daily Weather History Graph

Daily Weather History Graph

Search for Another Location

Airport:

Trip Planner

Search our weather history database for the weather conditions in past years. The results will help you decide how hot, cold, wet, or windy it might be!

Date:

Astronomy

Jan. 12, 2014 Rise Set
Actual Time 8:42 AM CET 4:59 PM CET
Civil Twilight 8:03 AM CET 5:37 PM CET
Nautical Twilight 7:21 AM CET 6:19 PM CET
Astronomical Twilight 6:41 AM CET 6:59 PM CET
Moon 2:18 PM CET (1/12) 5:23 AM CET (1/12)
Length of Visible Light 9h 34m
Length of Day
8h 17m
Waxing Gibbous, 88% of the Moon is Illuminated
Jan 12
Waxing Gibbous
Jan 16
Full
Jan 24
Last Quarter
Jan 30
New
Feb 6
First Quarter

Hourly Weather History & Observations

Time (CET) Temp. Windchill Dew Point Humidity Pressure Visibility Wind Dir Wind Speed Gust Speed Precip Events Conditions
12:00 AM 38 °F - 35 °F 85% 30.27 in 7 mi SW 6.7 mph - -  
12:20 AM 37.4 °F 33.8 °F 33.8 °F 87% 30.27 in - WSW 4.6 mph - N/A   Clear
12:50 AM 37.4 °F 32.8 °F 35.6 °F 93% 30.27 in - WSW 5.8 mph - N/A   Clear
1:00 AM 38 °F - 35 °F 83% 30.28 in 6 mi WSW 4.5 mph - -  
1:20 AM 37.4 °F 34.9 °F 33.8 °F 87% 30.27 in - WSW 3.5 mph - N/A   Clear
1:50 AM 37.4 °F - 33.8 °F 87% 30.27 in - WSW 1.2 mph - N/A   Clear
2:00 AM 37 °F - 34 °F 85% 30.28 in 6 mi WSW 2.2 mph - -  
2:20 AM 35.6 °F 32.8 °F 33.8 °F 93% 30.27 in 5.6 mi SSW 3.5 mph - N/A   Unknown
2:50 AM 35.6 °F 32.8 °F 33.8 °F 93% 30.27 in 5.0 mi SW 3.5 mph - N/A   Unknown
3:00 AM 36 °F - 33 °F 87% 30.29 in - SW 4.5 mph - -  
3:20 AM 35.6 °F 32.8 °F 33.8 °F 93% 30.27 in 4.3 mi SW 3.5 mph - N/A   Unknown
3:50 AM 35.6 °F - 33.8 °F 93% 30.27 in 4.3 mi SW 1.2 mph - N/A   Unknown
4:00 AM 36 °F - 33 °F 85% 30.30 in - Calm Calm - -  
4:20 AM 35.6 °F 32.8 °F 33.8 °F 93% 30.27 in 4.3 mi SW 3.5 mph - N/A   Unknown
4:50 AM 35.6 °F - 33.8 °F 93% 30.27 in 5.0 mi Variable 2.3 mph - N/A   Unknown
5:00 AM 35 °F - 33 °F 90% 30.30 in - SSW 2.2 mph - -  
5:20 AM 35.6 °F - 32.0 °F 87% 30.27 in 3.7 mi Variable 2.3 mph - N/A   Unknown
5:50 AM 35.6 °F - 32.0 °F 87% 30.27 in 3.7 mi Variable 1.2 mph - N/A   Unknown
6:00 AM 35 °F - 33 °F 87% 30.29 in - South 2.2 mph - -  
6:20 AM 32.0 °F - 30.2 °F 93% 30.27 in 5.0 mi SSE 2.3 mph - N/A   Unknown
6:50 AM 30.2 °F 26.7 °F 28.4 °F 93% 30.27 in 5.0 mi SE 3.5 mph - N/A   Unknown
7:00 AM 29 °F - 28 °F 97% 30.29 in 5 mi SE 2.2 mph - -   Clear
7:20 AM 28.4 °F - 28.4 °F 100% 30.27 in 3.7 mi SE 2.3 mph - N/A   Unknown
7:50 AM 26.6 °F - 26.6 °F 100% 30.27 in 1.9 mi SE 2.3 mph - N/A Fog Fog
8:00 AM 27 °F - 26 °F 96% 30.27 in 2 mi SE 2.2 mph - - Fog Patches of Fog
8:20 AM 28.4 °F 24.6 °F 28.4 °F 100% 30.27 in 0.5 mi SSE 3.5 mph - N/A Fog Light Freezing Fog
8:50 AM 28.4 °F - 26.6 °F 93% 30.24 in 0.5 mi ESE 2.3 mph - N/A Fog Light Freezing Fog
9:00 AM 28 °F - 27 °F 96% 30.27 in 0 mi ESE 2.2 mph - - Fog Fog
9:20 AM 28.4 °F - 28.4 °F 100% 30.24 in 0.5 mi SSE 2.3 mph - N/A Fog Light Freezing Fog
9:50 AM 30.2 °F - 28.4 °F 93% 30.24 in 1.6 mi East 2.3 mph - N/A   Mist
10:00 AM 31 °F - 29 °F 91% 30.27 in 2 mi East 2.2 mph - - Fog Light Fog
10:20 AM 33.8 °F - 32.0 °F 93% 30.24 in - East 2.3 mph - N/A   Mist
10:50 AM 33.8 °F 30.8 °F 32.0 °F 93% 30.24 in 3.7 mi ESE 3.5 mph - N/A   Unknown
11:00 AM 34 °F - 32 °F 91% 30.27 in 4 mi ESE 4.5 mph - -   Clear
11:20 AM 37.4 °F 33.8 °F 33.8 °F 87% 30.24 in 4.3 mi SE 4.6 mph - N/A   Unknown
11:50 AM 39.2 °F 35.0 °F 35.6 °F 87% 30.24 in 5.0 mi SE 5.8 mph - N/A   Unknown
12:00 PM 39 °F - 35 °F 80% 30.25 in 5 mi SE 4.5 mph - -   Clear
12:20 PM 41.0 °F 36.4 °F 35.6 °F 81% 30.21 in 5.6 mi SE 6.9 mph - N/A   Unknown
12:50 PM 41.0 °F 36.4 °F 35.6 °F 81% 30.18 in - SE 6.9 mph - N/A   Clear
1:00 PM 41 °F - 36 °F 77% 30.21 in 6 mi SE 6.7 mph - -   Clear
1:20 PM 42.8 °F 38.0 °F 35.6 °F 76% 30.18 in - SE 8.1 mph - N/A   Clear
1:50 PM 42.8 °F 38.6 °F 35.6 °F 76% 30.15 in - SE 6.9 mph - N/A   Clear
2:00 PM 43 °F - 35 °F 66% 30.18 in 9 mi SE 6.7 mph - -   Clear
2:20 PM 42.8 °F 38.0 °F 35.6 °F 76% 30.15 in - SE 8.1 mph - N/A   Clear
2:50 PM 42.8 °F 38.0 °F 33.8 °F 70% 30.12 in - SE 8.1 mph - N/A   Clear
3:00 PM 43 °F - 33 °F 58% 30.14 in 12 mi SE 8.9 mph - -   Clear
3:20 PM 42.8 °F 37.0 °F 33.8 °F 70% 30.12 in - SE 10.4 mph - N/A   Clear
3:50 PM 41.0 °F 35.2 °F 33.8 °F 76% 30.09 in - ESE 9.2 mph - N/A   Clear
4:00 PM 40 °F - 33 °F 67% 30.11 in 12 mi ESE 8.9 mph - -   Clear
4:20 PM 37.4 °F 30.8 °F 32.0 °F 81% 30.06 in - SE 9.2 mph - N/A   Clear
4:50 PM 37.4 °F 30.8 °F 32.0 °F 81% 30.06 in - SE 9.2 mph - N/A   Clear
5:00 PM 38 °F - 32 °F 72% 30.08 in 12 mi SE 8.9 mph - -   Clear
5:20 PM 35.6 °F 29.9 °F 30.2 °F 81% 30.06 in - SE 6.9 mph - N/A   Clear
5:50 PM 33.8 °F 27.7 °F 30.2 °F 87% 30.04 in - ESE 6.9 mph - N/A   Clear
6:00 PM 33 °F - 29 °F 82% 30.06 in 16 mi ESE 6.7 mph - -   Clear
6:20 PM 32.0 °F 24.8 °F 30.2 °F 93% 30.04 in - ESE 8.1 mph - N/A   Clear
6:50 PM 33.8 °F 27.0 °F 30.2 °F 87% 30.01 in - SE 8.1 mph - N/A   Clear
7:00 PM 34 °F - 30 °F 81% 30.02 in 16 mi SE 8.9 mph - -   Clear
7:20 PM 33.8 °F 26.4 °F 30.2 °F 87% 30.01 in - ESE 9.2 mph - N/A   Clear
7:50 PM 33.8 °F 27.7 °F 30.2 °F 87% 29.98 in - ESE 6.9 mph - N/A   Clear
8:00 PM 34 °F - 30 °F 78% 30.00 in 16 mi ESE 6.7 mph - -  
8:20 PM 35.6 °F 29.9 °F 30.2 °F 81% 29.98 in - SE 6.9 mph - N/A   Clear
8:50 PM 35.6 °F 29.2 °F 28.4 °F 75% 29.95 in - SE 8.1 mph - N/A   Clear
9:00 PM 36 °F - 29 °F 67% 29.98 in 16 mi SE 6.7 mph - -  
9:20 PM 35.6 °F 29.9 °F 30.2 °F 81% 29.95 in - SE 6.9 mph - N/A   Clear
9:50 PM 35.6 °F 30.7 °F 28.4 °F 75% 29.95 in - SSE 5.8 mph - N/A   Clear
10:00 PM 36 °F - 29 °F 68% 29.96 in 16 mi SSE 6.7 mph - -  
10:20 PM 35.6 °F 30.7 °F 28.4 °F 75% 29.95 in - SSE 5.8 mph - N/A   Clear
10:50 PM 35.6 °F 30.7 °F 30.2 °F 81% 29.92 in - SSE 5.8 mph - N/A   Clear
11:00 PM 35 °F - 29 °F 73% 29.94 in 16 mi SSE 6.7 mph - -  
11:20 PM 37.4 °F 34.9 °F 30.2 °F 75% 29.92 in - SSE 3.5 mph - N/A   Clear
11:50 PM 37.4 °F - 32.0 °F 81% 29.92 in 6.2 mi Variable 2.3 mph - N/A   Scattered Clouds